Tracking 28790 objects as of 19-Apr-2024
HD Live streaming from Space Station
objects crossing your sky now

ATLAS AGENA D R/B

Track ATLAS AGENA D R/B now!


NORAD ID: 4511
Int'l Code: 1970-046B
Perigee: 35,623.6 km
Apogee: 35,885.7 km
Inclination: 0.4 °
Period: 1,434.1 minutes
Semi major axis: 42125 km
RCS: Unknown
Launch date: June 19, 1970
Source: United States (US)
Launch site: AIR FORCE EASTERN TEST RANGE (AFETR)

Note: This is a ROCKET BODY
Your satellite tracking list
Your tracking list is empty




NASA's NSSDC Master Catalog

Two Line Element Set (TLE):
1 04511U 70046B   24109.06326015 -.00000325  00000-0  00000-0 0  9998
2 04511   0.3538 265.1421 0031113 115.2764 339.6978  1.00411504 17625
Source of the keplerian elements: AFSPC